Date,TemperatureHighF,TemperatureAvgF,TemperatureLowF,DewpointHighF,DewpointAvgF,DewpointLowF,HumidityHigh,HumidityAvg,HumidityLow,PressureMaxIn,PressureMinIn,WindSpeedMaxMPH,WindSpeedAvgMPH,GustSpeedMaxMPH,PrecipitationSumIn
2013-1-1,39.2,35.4,25.2,38.0,30.4,16.8,98,83,64,29.97,29.78,7,2,0,0.02
2013-1-2,32.9,26.6,18.5,23.8,18.9,14.9,98,73,58,30.13,29.96,10,1,0,0.10
2013-1-3,32.5,26.8,17.6,25.7,21.2,16.3,98,80,61,30.16,30.01,4,0,0,0.00
2013-1-4,38.8,33.8,28.6,30.6,27.9,25.5,92,79,65,30.03,29.88,7,2,0,0.00
2013-1-5,42.4,34.2,26.4,30.8,27.7,24.0,98,78,60,30.22,29.96,11,1,0,0.00
2013-1-6,46.2,36.8,29.1,39.1,33.4,28.6,98,88,64,30.18,29.91,4,1,0,0.00
2013-1-7,43.7,33.5,24.4,37.9,28.8,24.0,98,85,55,30.35,30.00,6,1,0,0.00
2013-1-8,47.1,32.8,20.7,39.6,30.3,20.2,98,91,70,30.38,30.29,6,0,0,0.00
2013-1-9,44.8,35.4,25.0,44.2,34.9,24.5,98,98,96,30.35,30.11,4,1,0,0.00
2013-1-10,47.3,40.5,30.7,42.6,32.5,30.2,98,74,53,30.50,30.17,9,2,0,0.00
2013-1-11,42.1,36.1,28.4,41.6,35.6,27.9,98,98,95,30.50,30.06,1,0,0,2.87
2013-1-12,46.8,44.4,41.2,46.2,43.8,40.7,98,98,98,30.12,30.02,0,0,0,0.14
2013-1-13,47.8,45.7,44.1,47.3,45.1,43.5,98,98,98,30.10,29.96,0,0,0,0.06
2013-1-14,54.9,48.5,37.6,54.3,46.1,37.1,98,92,67,30.25,29.85,7,1,0,0.39
2013-1-15,38.1,36.1,33.8,37.1,34.8,33.3,98,95,86,30.31,30.17,5,1,0,0.46
2013-1-16,34.3,32.9,31.5,33.8,32.4,31.0,98,98,98,30.19,29.78,2,0,0,0.94
2013-1-17,43.0,37.4,33.4,39.8,35.4,31.4,98,93,72,30.05,29.85,5,0,0,2.10
2013-1-18,32.9,26.5,21.9,30.8,17.7,10.6,93,70,47,30.43,29.97,7,1,0,0.00
2013-1-19,48.7,38.7,24.6,37.5,31.2,19.0,98,75,59,30.35,29.87,7,2,0,0.24
2013-1-20,52.7,40.7,29.3,40.7,30.3,14.3,98,70,32,29.99,29.63,12,2,0,0.00
2013-1-21,31.6,27.7,20.8,25.9,19.9,13.4,98,73,54,30.05,29.78,5,0,0,0.00
2013-1-22,26.1,19.3,12.4,25.1,5.9,-4.3,96,56,35,30.16,29.78,10,3,0,0.00
2013-1-23,19.4,13.4,8.1,7.8,1.2,-2.4,98,59,42,30.21,30.11,7,1,0,0.00
2013-1-24,23.0,14.2,-11.0,10.1,4.5,-45.6,98,69,15,30.36,30.09,17,3,0,0.00
2013-1-25,25.0,17.6,11.8,20.8,10.0,2.7,98,73,53,30.37,30.02,4,0,0,0.00
2013-1-26,27.7,17.9,7.5,17.3,11.2,7.1,98,77,50,30.33,30.00,7,2,0,0.00
2013-1-27,33.6,23.0,-36.8,20.7,14.5,-67.1,98,72,15,30.48,30.33,7,1,0,0.00
2013-1-28,33.4,25.5,20.7,32.9,25.0,20.2,98,98,94,30.45,29.95,0,0,0,0.04
2013-1-29,50.5,39.6,33.4,50.0,39.1,32.9,98,98,98,30.10,29.94,0,0,0,0.99
2013-1-30,55.4,46.0,37.6,54.8,45.5,37.1,98,98,98,30.05,29.30,1,0,0,0.76
2013-1-31,59.9,45.7,30.4,59.3,37.6,18.5,98,75,49,29.69,28.96,13,6,0,4.48
2013-2-2,29.8,25.9,21.2,24.1,17.7,12.0,98,73,49,30.24,30.01,7,1,0,0.00
2013-2-3,31.8,24.8,17.1,29.8,23.0,16.6,98,93,74,30.01,29.74,4,0,0,0.00
2013-2-4,30.9,26.2,21.2,25.2,17.3,14.2,98,70,53,29.92,29.75,7,2,0,0.00
2013-2-5,31.8,28.4,25.3,31.3,27.5,21.3,98,96,80,29.93,29.86,4,0,0,0.83
2013-2-6,39.0,31.6,22.8,34.8,24.4,9.5,98,77,46,30.32,29.87,5,1,0,0.12
2013-2-7,33.8,26.2,18.7,28.4,18.6,10.3,98,75,50,30.48,30.31,4,0,0,0.00
2013-2-8,33.3,31.4,26.8,32.8,30.9,26.3,98,98,98,30.30,29.60,7,1,0,0.00
2013-2-9,32.5,28.8,25.7,28.1,24.0,14.5,98,84,50,30.07,29.71,0,0,0,0.00
2013-2-10,34.5,24.9,15.8,27.0,21.7,11.5,98,88,57,30.39,30.29,0,0,0,0.00
2013-2-11,39.9,33.7,25.9,39.4,33.2,25.4,98,98,98,30.28,29.61,0,0,0,4.16
2013-2-12,45.1,38.8,28.6,40.3,34.7,28.1,98,86,64,29.91,29.66,8,1,0,0.96
2013-2-13,28.6,27.5,26.2,28.1,27.1,25.8,98,98,98,29.90,29.87,0,0,0,0.00
2013-2-15,41.2,40.3,39.4,40.7,39.8,38.9,98,98,98,29.92,29.91,3,1,0,0.00
2013-2-16,39.2,34.6,30.4,38.5,31.8,21.3,98,90,68,29.93,29.70,6,2,0,0.09
2013-2-17,30.9,25.7,16.5,20.4,11.2,4.3,67,54,41,29.94,29.61,18,5,0,0.00
2013-2-18,35.2,24.7,16.2,24.1,11.9,5.4,90,59,41,30.18,29.95,10,2,0,0.00
2013-2-19,46.4,34.9,21.6,44.0,32.9,19.6,98,93,68,30.15,29.62,9,0,0,0.37
2013-2-20,36.7,30.5,24.8,36.2,21.8,15.1,98,71,54,29.93,29.66,10,4,0,0.01
2013-2-21,33.8,27.3,23.2,20.9,18.2,15.6,86,68,57,30.26,29.92,10,4,0,0.00
2013-2-22,39.9,31.6,21.6,34.4,28.6,20.1,98,89,69,30.36,30.23,6,0,0,0.00
2013-2-23,40.8,36.5,33.1,40.3,36.0,32.6,98,98,98,30.23,29.77,5,0,0,0.20
2013-2-24,45.9,38.1,32.4,45.3,35.9,29.7,98,92,76,29.91,29.68,8,2,0,0.01
2013-2-25,45.5,36.7,25.3,39.4,33.0,24.9,98,87,64,30.19,29.92,6,1,0,0.00
2013-2-26,44.6,38.0,27.1,44.1,37.5,26.7,98,98,98,30.25,29.89,5,1,0,0.19
2013-2-27,46.0,41.6,35.6,45.5,41.0,35.1,98,98,98,29.87,29.44,12,2,0,1.03
2013-2-28,49.1,41.7,36.7,47.7,39.5,36.2,98,92,73,29.57,29.48,5,0,0,0.00
2013-3-1,45.7,38.7,31.6,40.5,35.1,30.9,98,88,68,29.73,29.55,9,2,0,0.00
2013-3-2,40.8,35.8,30.9,33.7,31.4,29.8,98,84,71,29.73,29.64,7,1,0,0.00
2013-3-3,40.1,32.4,28.0,30.2,25.3,21.5,98,76,58,29.71,29.60,7,3,0,0.00
2013-3-4,39.9,33.0,26.8,27.8,25.1,-1.2,91,74,19,29.86,29.71,11,4,0,0.00
2013-3-5,47.7,38.2,30.6,35.5,31.2,26.2,95,77,58,29.97,29.85,8,2,0,0.00
2013-3-6,44.4,39.7,34.9,43.5,38.3,34.3,98,95,83,29.93,29.82,18,4,0,0.04
2013-3-7,39.7,36.2,32.5,39.2,34.8,32.0,98,95,82,30.04,29.88,10,3,0,0.15
2013-3-8,41.5,35.7,31.6,41.0,34.9,31.1,98,97,88,30.15,29.96,6,1,0,0.67
2013-3-9,55.0,42.0,30.0,35.5,30.8,22.4,98,68,32,30.27,30.14,9,2,0,0.02
2013-3-10,52.7,37.7,25.5,46.5,36.2,25.0,98,95,72,30.35,30.24,3,0,0,0.00
2013-3-11,56.1,46.1,37.9,55.6,45.6,37.4,98,98,98,30.27,30.04,6,0,0,0.00
2013-3-12,54.7,50.6,41.9,54.1,50.0,41.4,98,98,98,30.04,29.61,8,1,0,1.48
2013-3-13,41.5,40.2,39.0,41.0,39.7,38.5,98,98,98,29.80,29.77,1,0,0,0.00
2013-3-16,35.4,33.0,32.0,34.9,32.5,31.5,98,98,98,29.86,29.73,0,0,0,0.06
2013-3-17,38.3,32.3,27.3,32.2,24.7,19.3,98,75,50,30.26,29.86,8,1,0,0.00
2013-3-18,37.4,30.1,23.5,31.9,22.6,14.3,98,75,56,30.37,29.99,5,1,0,0.00
2013-3-19,43.2,36.5,32.5,42.6,36.0,32.0,98,98,98,29.98,29.65,5,1,0,1.17
2013-3-20,44.4,36.8,29.1,35.5,28.9,25.1,98,75,49,29.82,29.72,9,2,0,0.00
2013-3-21,40.1,34.7,30.6,32.9,23.3,17.9,98,65,46,29.79,29.57,7,2,0,0.00
2013-3-22,41.2,33.9,26.6,30.9,24.7,19.5,93,70,56,29.82,29.67,9,1,0,0.00
2013-3-23,46.0,38.1,28.8,31.7,27.5,24.8,98,67,50,29.88,29.76,9,3,0,0.00
2013-3-24,48.4,38.3,25.5,32.0,28.9,25.0,98,70,51,29.89,29.65,9,1,0,0.00
2013-3-25,45.0,39.6,36.3,43.4,36.6,31.4,98,89,61,29.66,29.41,8,1,0,0.02
2013-3-26,43.5,37.6,33.3,38.3,35.5,32.8,98,93,70,29.80,29.53,0,0,0,0.00
2013-3-27,52.7,42.9,33.3,40.6,33.7,29.2,98,72,41,29.92,29.80,9,2,0,0.00
2013-3-28,50.9,43.6,34.3,41.0,37.6,33.8,98,81,64,30.06,29.90,9,2,0,0.00
2013-3-29,55.6,46.4,37.4,38.7,36.5,34.3,98,70,48,30.09,30.00,7,2,0,0.00
2013-3-30,59.4,44.6,30.4,41.6,32.8,28.0,98,69,33,30.12,30.00,7,1,0,0.00
2013-3-31,57.4,43.6,29.1,50.0,39.5,28.6,98,87,52,30.08,29.62,6,0,0,0.35
2013-4-1,63.0,47.0,36.3,56.6,41.3,20.7,98,83,45,29.86,29.55,10,2,0,0.02
2013-4-2,44.4,36.8,28.6,23.7,20.2,16.6,78,52,36,30.04,29.86,9,3,0,0.00
2013-4-3,46.9,37.7,31.6,23.7,19.6,16.6,63,49,34,30.25,30.03,9,3,0,0.00
2013-4-4,57.0,41.5,26.1,37.8,28.7,20.6,98,62,42,30.35,30.03,7,1,0,0.00
2013-4-5,63.3,49.1,38.8,37.7,31.2,22.6,91,54,24,30.02,29.65,12,2,0,0.00
2013-4-6,55.4,43.0,33.8,36.9,21.1,-32.0,98,47,2,30.26,29.95,7,2,0,0.00
2013-4-7,61.7,48.2,36.3,53.7,42.9,35.8,98,84,55,30.25,29.92,5,0,0,0.00
2013-4-8,76.6,57.8,40.6,57.0,49.1,40.1,98,78,39,30.03,29.91,5,1,0,0.00
2013-4-9,84.0,65.9,49.5,64.0,51.6,43.0,98,68,24,29.94,29.83,8,1,0,0.00
2013-4-10,78.1,62.9,52.3,65.0,58.8,51.8,98,88,61,29.89,29.74,8,1,0,0.77
2013-4-11,58.5,58.1,57.9,57.9,57.6,57.4,98,98,98,29.79,29.72,1,0,0,0.01
2013-4-27,73.6,63.9,51.3,42.1,38.9,31.9,69,41,29,30.38,30.21,5,1,0,0.00
2013-4-28,74.5,57.0,40.6,53.0,44.8,38.6,98,68,39,30.27,30.14,5,0,0,0.00
2013-4-29,56.8,55.0,52.9,56.3,54.0,34.5,98,97,46,30.19,30.14,1,0,0,0.07
2013-4-30,72.3,59.3,46.8,59.5,47.5,35.9,98,71,28,30.28,30.16,5,0,0,0.00
2013-5-1,73.2,56.0,37.8,54.1,46.0,37.2,98,74,36,30.44,30.28,4,0,0,0.00
2013-5-2,78.6,59.1,40.8,57.2,48.4,40.3,98,73,32,30.43,30.26,5,0,0,0.00
2013-5-3,70.9,58.4,47.8,55.0,48.9,44.3,98,74,41,30.41,30.29,4,0,0,0.00
2013-5-4,75.2,56.2,41.7,57.2,49.8,41.2,98,82,48,30.33,30.17,8,0,0,0.00
2013-5-5,67.5,52.6,39.2,55.8,47.6,38.7,98,85,50,30.25,30.15,4,0,0,0.00
2013-5-6,73.0,56.8,41.4,68.0,54.9,40.8,98,94,69,30.22,30.08,4,0,0,0.00
2013-5-7,76.8,62.5,46.4,71.4,60.2,45.9,98,93,76,30.11,30.02,3,0,0,0.00
2013-5-8,65.1,60.6,53.8,64.5,60.1,53.2,98,98,98,30.05,29.91,2,0,0,2.56
2013-5-9,66.4,58.9,51.4,65.8,58.3,50.9,98,98,98,29.95,29.82,3,0,0,1.21
2013-5-10,82.0,65.9,50.4,71.4,61.4,49.8,98,87,58,29.94,29.82,4,0,0,0.00
2013-5-11,70.9,64.4,61.2,70.3,63.8,60.6,98,98,98,29.84,29.63,4,0,0,0.87
2013-5-12,69.3,60.8,50.9,61.7,49.7,35.8,98,71,38,29.87,29.58,7,2,0,0.06
2013-5-13,56.8,49.6,42.3,45.1,38.9,33.3,98,69,44,30.05,29.87,6,1,0,0.00
2013-5-14,61.3,49.8,36.0,46.8,38.7,30.6,98,71,32,30.07,29.95,7,1,0,0.00
2013-5-15,69.1,57.0,40.3,68.5,55.5,39.8,98,95,70,30.01,29.60,5,0,0,0.00
2013-5-16,82.9,70.2,55.8,68.3,62.3,55.2,98,79,51,29.76,29.63,7,1,0,0.00
2013-5-17,74.1,64.2,55.0,61.7,52.8,47.7,98,68,45,30.15,29.77,5,1,0,0.00
2013-5-18,67.5,58.3,48.0,65.3,56.3,47.5,98,93,71,30.25,30.14,5,0,0,0.04
2013-5-19,59.7,57.9,56.3,59.2,57.4,55.7,98,98,98,30.27,30.13,0,0,0,0.58
2013-5-20,80.1,68.1,58.1,79.4,67.5,57.5,98,98,98,30.12,29.89,5,0,0,0.00
2013-5-21,90.3,75.9,61.3,88.0,75.2,60.8,98,98,92,29.91,29.75,6,1,0,0.00
2013-5-22,81.1,71.3,61.3,80.5,70.8,60.8,98,98,98,29.87,29.75,3,0,0,0.00
2013-5-23,78.8,70.8,66.6,78.2,70.3,66.0,98,98,98,29.82,29.69,6,0,0,2.60
2013-5-24,66.4,55.3,45.0,65.8,54.7,44.4,98,98,98,29.89,29.60,7,1,0,0.57
2013-5-25,52.5,48.7,43.9,52.0,48.2,43.4,98,98,98,29.94,29.83,9,3,0,0.74
2013-5-26,66.2,56.0,46.8,56.4,49.0,45.1,98,80,50,30.14,29.88,8,3,0,0.00
2013-5-27,76.5,60.8,41.5,59.0,48.9,41.0,98,70,34,30.19,30.04,4,1,0,0.00
2013-5-28,68.4,57.5,49.8,67.8,56.8,49.3,98,97,83,30.16,30.07,2,0,0,0.89
2013-5-29,84.7,70.0,58.5,84.1,69.4,57.9,98,98,98,30.08,29.92,5,1,0,0.00
2013-5-30,92.8,80.4,67.3,89.3,76.4,66.7,98,89,58,30.06,29.97,4,0,0,0.00
2013-5-31,93.7,82.5,67.3,91.5,79.0,66.7,98,90,58,30.06,29.91,5,0,0,0.00
2013-6-1,91.8,79.8,65.7,90.6,78.9,65.1,98,97,85,29.96,29.82,4,1,0,0.00
2013-6-2,89.2,80.5,73.9,88.6,79.9,73.3,98,98,98,29.84,29.69,8,2,0,0.00
2013-6-3,81.3,73.2,67.1,80.7,72.5,66.5,98,98,94,29.82,29.73,3,0,0,0.28
2013-6-4,75.0,66.0,56.7,66.2,58.7,53.7,98,80,49,30.05,29.83,5,1,0,0.00
2013-6-5,76.6,64.1,49.1,69.7,58.8,48.6,98,85,59,30.15,30.05,5,0,0,0.00
2013-6-6,73.4,63.1,53.2,72.8,61.9,52.7,98,96,77,30.09,29.96,5,0,0,0.24
2013-6-7,62.6,60.9,59.0,62.0,60.4,58.4,98,98,98,29.95,29.57,2,0,0,3.79
2013-6-8,78.6,67.2,57.0,78.0,66.6,56.5,98,98,98,29.99,29.53,4,0,0,0.13
2013-6-9,81.7,71.0,58.6,81.1,70.2,58.1,98,97,86,30.11,29.99,5,0,0,0.00
2013-6-10,72.0,65.7,62.4,71.4,65.1,61.8,98,98,98,30.10,29.77,3,0,0,1.37
2013-6-11,80.4,70.6,62.8,79.8,70.0,62.2,98,98,98,29.76,29.54,7,1,0,0.28
2013-6-12,75.0,69.3,62.1,74.4,68.7,61.5,98,98,93,29.78,29.64,10,2,0,0.00
2013-6-13,63.5,61.0,56.8,62.9,60.4,56.3,98,98,98,29.78,29.41,5,0,0,0.67
2013-6-14,72.1,61.5,53.2,71.5,61.0,52.7,98,98,98,29.81,29.46,5,1,0,0.61
2013-6-15,80.4,69.9,58.3,75.5,64.3,57.7,98,85,56,29.94,29.82,4,0,0,0.00
2013-6-16,81.7,70.1,56.3,80.3,68.9,55.7,98,96,80,29.93,29.69,8,1,0,0.00
2013-6-17,88.0,75.1,63.7,87.3,74.5,63.1,98,98,98,29.84,29.75,6,1,0,0.00
2013-6-18,84.6,70.1,63.1,83.9,69.5,62.6,98,98,98,29.83,29.75,3,0,0,0.75
2013-6-19,74.8,67.8,61.0,70.3,65.5,60.4,98,93,75,30.10,29.98,0,0,0,0.00
2013-6-20,83.5,68.5,54.7,79.3,67.2,54.1,98,96,65,30.20,30.10,4,0,0,0.00
2013-6-21,86.0,72.1,57.9,83.0,71.1,57.4,98,97,82,30.24,30.15,4,0,0,0.00
2013-6-22,86.5,73.3,59.4,85.9,72.7,58.8,98,98,94,30.20,30.06,5,0,0,0.00
2013-6-23,90.0,77.0,63.3,89.3,76.4,62.7,98,98,98,30.12,29.98,6,1,0,0.00
2013-6-24,94.5,82.3,72.5,93.3,81.4,71.9,98,97,72,30.00,29.86,6,1,0,0.00
2013-6-25,93.2,80.6,68.5,92.5,80.0,68.0,98,98,98,29.94,29.73,5,1,0,0.00
2013-6-26,84.9,79.7,74.5,84.3,79.1,73.9,98,98,98,29.78,29.71,5,0,0,0.00
2013-6-27,88.2,78.5,71.6,87.5,77.9,71.0,98,98,98,29.76,29.47,4,0,0,1.04
2013-6-28,86.9,78.6,72.1,86.3,78.0,71.5,98,98,98,29.49,29.39,6,1,0,0.01
2013-6-29,86.2,76.9,68.5,85.5,76.3,68.0,98,98,98,29.63,29.42,3,0,0,0.00
2013-6-30,87.1,76.4,68.7,86.4,75.8,68.1,98,98,98,29.85,29.63,3,0,0,0.00
2013-7-1,78.3,74.8,72.0,77.6,74.2,71.4,98,98,98,29.99,29.83,4,0,0,2.47
2013-7-2,84.9,77.9,73.6,84.3,77.3,73.0,98,98,98,30.11,29.98,4,0,0,0.01
2013-7-3,84.2,78.2,73.6,83.6,77.5,73.0,98,98,98,30.18,30.10,3,0,0,0.06
2013-7-4,90.7,82.6,74.8,90.0,82.0,74.2,98,98,98,30.19,30.08,5,1,0,0.00
2013-7-5,93.0,84.3,75.0,92.4,83.6,74.4,98,98,98,30.15,30.02,5,1,0,0.11
2013-7-6,93.6,84.5,76.3,92.9,83.9,75.7,98,98,98,30.07,29.95,3,0,0,0.00
2013-7-7,95.7,84.8,74.3,95.1,84.2,73.7,98,98,98,30.00,29.85,5,0,0,0.19
2013-7-8,89.4,80.0,70.5,88.8,79.3,69.9,98,98,98,29.97,29.89,4,0,0,0.00
2013-7-9,89.6,81.1,71.1,89.0,80.5,70.5,98,98,98,30.01,29.92,4,0,0,0.00
2013-7-10,86.9,81.2,75.6,86.3,80.6,75.0,98,98,98,29.95,29.73,6,1,0,0.31
2013-7-11,86.7,79.2,72.1,86.1,78.6,71.5,98,98,98,29.86,29.73,3,0,0,0.02
2013-7-12,80.4,74.0,67.6,79.8,73.4,67.1,98,98,98,30.05,29.86,6,0,0,1.71
2013-7-13,81.1,73.4,66.9,80.5,72.8,66.3,98,98,98,30.22,30.05,2,0,0,0.51
2013-7-14,92.5,82.1,73.4,91.8,81.5,72.8,98,98,98,30.28,30.16,3,0,0,0.00
2013-7-15,93.7,84.6,76.6,93.1,84.0,76.0,98,98,98,30.19,30.06,5,0,0,0.00
2013-7-16,94.8,83.6,72.3,94.2,83.0,71.7,98,98,98,30.15,30.06,3,0,0,0.00
2013-7-17,96.8,84.8,73.6,96.1,84.2,73.0,98,98,98,30.14,29.99,3,0,0,0.00
2013-7-18,96.8,86.5,76.1,96.1,85.9,75.5,98,98,98,30.00,29.88,4,0,0,0.00
2013-7-19,97.2,88.4,78.6,96.5,87.7,78.0,98,98,98,29.91,29.71,6,1,0,0.00
2013-7-20,93.2,85.5,79.5,92.5,84.8,78.9,98,98,98,29.77,29.65,7,1,0,0.00
2013-7-21,87.8,80.1,73.6,87.2,79.5,73.0,98,98,98,29.90,29.77,2,0,0,0.00
2013-7-22,84.9,76.5,72.0,84.3,75.9,71.4,98,98,98,29.90,29.74,3,0,0,7.10
2013-7-23,88.5,78.5,73.0,87.9,77.9,72.4,98,98,98,29.74,29.48,4,0,0,6.93
2013-7-24,80.6,75.3,68.2,80.0,74.7,67.6,98,98,98,29.88,29.54,5,1,0,0.00
2013-7-25,70.0,66.0,62.6,69.4,65.4,62.0,98,98,98,30.00,29.88,4,1,0,0.00
2013-7-26,83.3,73.5,65.7,82.7,72.9,65.1,98,98,98,29.98,29.92,6,0,0,0.00
2013-7-27,84.4,73.8,62.6,83.8,73.2,62.0,98,98,98,29.99,29.89,4,0,0,0.00
2013-7-28,79.7,72.3,65.7,79.1,71.7,65.1,98,98,98,29.93,29.86,3,0,0,1.09
2013-7-29,84.9,75.5,69.1,84.3,74.9,68.5,98,98,98,30.04,29.89,5,0,0,0.05
2013-7-30,81.1,70.8,59.4,80.5,70.3,58.8,98,98,98,30.11,30.04,5,0,0,0.00
2013-7-31,83.1,72.0,59.7,82.5,71.4,59.2,98,98,98,30.10,29.97,2,0,0,0.00
2013-8-1,74.7,69.1,67.1,74.1,68.5,66.5,98,98,98,29.98,29.77,4,0,0,5.51
2013-8-2,84.2,74.4,65.1,83.6,73.8,64.5,98,98,98,29.84,29.72,5,0,0,0.04
2013-8-3,79.2,70.6,65.8,78.5,70.0,65.3,98,98,98,29.85,29.77,4,0,0,0.63
2013-8-4,78.8,70.5,60.1,78.2,69.9,59.5,98,98,98,29.90,29.79,9,1,0,0.00
2013-8-5,78.6,67.8,57.6,74.2,65.5,57.0,98,93,76,29.99,29.90,5,0,0,0.00
2013-8-6,82.9,69.7,55.6,82.3,69.1,55.0,98,98,98,30.06,29.98,3,0,0,0.00
2013-8-7,79.5,72.0,65.3,78.9,71.4,64.7,98,98,98,30.08,30.00,4,0,0,0.00
2013-8-8,83.8,73.9,69.8,83.2,73.3,69.2,98,98,98,30.01,29.94,2,0,0,3.57
2013-8-9,86.5,76.3,72.0,85.9,75.7,71.4,98,98,98,29.95,29.72,5,0,0,7.56
2013-8-10,83.5,74.0,66.0,82.9,73.4,65.4,98,98,98,29.99,29.79,5,0,0,0.06
2013-8-11,80.1,70.4,58.1,79.4,69.9,57.5,98,98,98,30.06,29.96,2,0,0,0.00
2013-8-12,84.6,73.8,67.8,83.9,73.2,67.2,98,98,98,29.97,29.86,1,0,0,0.61
2013-8-13,79.0,71.0,66.9,78.4,70.4,66.3,98,98,98,29.87,29.63,6,0,0,3.52
2013-8-14,73.8,65.6,55.4,73.2,65.0,54.8,98,98,98,29.99,29.69,8,1,0,0.13
2013-8-15,76.8,67.7,54.9,76.2,67.1,54.3,98,98,98,30.08,29.99,5,0,0,0.00
2013-8-16,80.8,67.7,55.4,80.2,67.1,54.8,98,98,98,30.15,30.07,1,0,0,0.00
2013-8-17,83.8,70.0,56.3,83.2,69.4,55.7,98,98,98,30.22,30.15,3,0,0,0.00
2013-8-18,76.8,69.0,62.4,76.2,68.4,61.8,98,98,98,30.21,30.07,0,0,0,0.00
2013-8-19,80.1,70.5,61.3,79.4,69.9,60.8,98,98,98,30.07,29.96,3,0,0,0.00
2013-8-20,86.9,74.2,61.3,86.3,73.6,60.8,98,98,98,30.07,29.98,3,0,0,0.00
2013-8-21,89.6,76.0,63.7,89.0,75.4,63.1,98,98,98,30.12,29.99,4,0,0,0.00
2013-8-22,75.2,71.6,68.0,74.6,71.0,67.4,98,98,98,30.00,29.81,1,0,0,0.97
2013-8-23,81.5,73.1,65.3,80.9,72.5,64.7,98,98,98,30.04,29.81,6,0,0,0.00
2013-8-24,81.3,68.8,57.2,80.7,68.2,56.6,98,98,98,30.29,30.05,4,0,0,0.00
2013-8-25,83.1,69.6,55.6,82.5,69.0,55.0,98,98,98,30.34,30.17,3,0,0,0.00
2013-8-26,79.5,73.0,66.7,78.9,72.4,66.2,98,98,98,30.17,29.85,3,0,0,0.12
2013-8-27,86.2,76.2,70.0,85.5,75.6,69.4,98,98,98,29.84,29.75,3,0,0,0.02
2013-8-28,87.8,73.4,66.9,87.2,72.8,66.3,98,98,98,29.84,29.78,4,0,0,0.14
2013-8-29,81.1,73.1,69.1,80.5,72.5,68.5,98,98,98,29.97,29.83,1,0,0,0.07
2013-8-30,86.2,75.8,69.1,85.5,75.2,68.5,98,98,98,29.97,29.79,4,0,0,0.00
2013-8-31,86.5,79.2,73.6,85.9,78.6,73.0,98,98,98,29.80,29.71,4,0,0,0.00
2013-9-1,81.5,77.0,71.4,80.9,76.4,70.8,98,98,98,29.80,29.72,0,0,0,2.30
2013-9-2,80.6,75.6,71.4,80.0,75.0,70.8,98,98,98,29.74,29.64,0,0,0,1.08
2013-9-3,79.3,71.7,64.6,78.7,71.1,64.0,98,98,98,29.83,29.64,3,0,0,0.15
2013-9-4,82.4,70.4,60.6,81.8,69.8,60.1,98,98,98,29.94,29.82,5,1,0,0.00
2013-9-5,76.5,68.1,57.2,75.9,67.5,56.6,98,98,98,30.10,29.85,7,1,0,0.00
2013-9-6,72.0,62.0,55.0,71.4,61.4,54.5,98,98,98,30.20,30.08,4,0,0,0.00
2013-9-7,79.7,64.8,48.4,79.1,64.2,47.8,98,98,98,30.08,29.83,3,0,0,0.00
2013-9-8,80.4,70.4,60.3,79.8,69.8,59.7,98,98,98,30.02,29.76,7,1,0,0.00
2013-9-9,72.9,64.4,60.3,72.3,63.8,59.7,98,98,98,30.19,30.02,2,0,0,0.00
2013-9-10,85.1,75.0,66.2,84.5,74.4,65.6,98,98,98,30.10,29.98,6,1,0,0.09
2013-9-11,94.6,85.2,74.1,94.0,84.6,73.5,98,98,98,30.05,29.89,5,0,0,0.00
2013-9-12,87.4,76.2,68.7,86.8,75.6,68.1,98,98,98,29.92,29.61,10,0,0,2.33
2013-9-13,75.6,67.3,58.5,75.0,66.7,57.9,98,98,98,29.79,29.56,8,1,0,0.09
2013-9-14,65.5,58.0,50.5,64.9,57.4,50.0,98,98,98,30.07,29.79,7,1,0,0.00
2013-9-15,71.1,57.7,45.1,70.5,57.1,44.6,98,98,98,30.16,30.02,3,0,0,0.00
2013-9-16,72.1,61.8,55.0,71.5,61.2,54.5,98,98,98,30.20,29.97,5,0,0,0.00
2013-9-17,64.4,55.1,47.7,63.8,54.5,47.1,98,98,98,30.39,30.21,7,1,0,0.00
2013-9-18,72.0,56.8,42.6,71.4,56.2,42.1,98,98,98,30.30,30.12,3,0,0,0.00
2013-9-19,76.3,60.2,45.1,75.7,59.6,44.6,98,98,98,30.14,29.99,3,0,0,0.00
2013-9-20,79.9,62.9,48.7,79.3,62.4,48.2,98,98,98,30.04,29.92,3,0,0,0.00
2013-9-21,77.4,64.9,51.8,76.7,64.3,51.3,98,98,98,29.96,29.59,4,0,0,1.65
2013-9-22,68.5,61.2,53.8,68.0,60.6,53.2,98,98,98,29.86,29.57,9,1,0,1.64
2013-9-23,64.8,55.2,45.5,64.2,54.7,45.0,98,98,98,29.99,29.85,5,1,0,0.00
2013-9-24,71.2,55.6,41.9,70.6,55.0,41.4,98,98,98,30.00,29.80,6,0,0,0.00
2013-9-25,72.3,57.0,43.7,71.7,56.5,43.2,98,98,98,29.90,29.81,5,0,0,0.00
2013-9-26,70.7,59.4,48.6,70.1,58.8,48.0,98,98,98,30.04,29.88,2,0,0,0.00
2013-9-27,68.5,58.8,49.1,68.0,58.2,48.6,98,98,98,30.21,30.04,3,0,0,0.00
2013-9-28,73.6,63.1,55.8,73.0,62.5,55.2,98,98,98,30.23,30.19,0,0,0,0.00
2013-9-29,72.9,59.1,48.4,72.3,58.5,47.8,98,98,98,30.18,30.02,1,0,0,0.00
2013-9-30,73.9,58.7,47.1,73.3,58.2,46.6,98,98,98,30.03,29.90,3,0,0,0.00
2013-10-1,79.9,62.6,47.8,79.3,62.0,47.3,98,98,98,29.95,29.82,2,0,0,0.00
2013-10-2,82.9,67.3,54.0,82.3,66.7,53.4,98,98,98,29.95,29.84,5,0,0,0.00
2013-10-3,77.0,65.3,53.8,76.4,64.7,53.2,98,98,98,30.07,29.95,2,0,0,0.00
2013-10-4,85.5,70.3,59.2,84.8,69.7,58.6,98,98,98,30.00,29.89,3,0,0,0.00
2013-10-5,74.7,68.5,64.8,74.1,67.9,64.2,98,98,98,30.04,29.96,2,0,0,0.00
2013-10-6,68.2,67.2,65.8,67.6,66.7,65.3,98,98,98,30.04,29.98,0,0,0,0.00
2013-10-7,75.4,66.6,56.3,74.8,66.0,55.7,98,98,98,29.97,29.66,6,0,0,1.70
2013-10-8,66.9,55.7,48.6,66.3,55.1,48.0,98,98,98,30.28,29.93,5,0,0,0.04
2013-10-9,63.7,54.8,47.7,63.1,54.2,47.1,98,98,98,30.36,30.25,4,0,0,0.00
2013-10-10,53.8,53.4,52.9,53.2,52.8,52.3,98,98,98,30.25,30.21,3,0,0,0.00
2013-10-11,67.8,65.4,59.5,67.2,64.8,59.0,98,98,98,30.04,29.96,4,0,0,0.00
2013-10-12,73.8,64.4,58.1,73.2,63.8,57.5,98,98,98,30.24,30.02,4,1,0,0.00
2013-10-13,66.4,58.3,52.9,65.8,57.7,52.3,98,98,98,30.35,30.24,5,1,0,0.00
2013-10-14,66.0,56.6,49.5,65.4,56.0,48.9,98,98,98,30.32,30.18,1,0,0,0.00
2013-10-15,72.0,57.2,46.6,71.4,56.6,46.0,98,98,98,30.21,30.06,2,0,0,0.00
2013-10-16,67.6,61.7,50.5,67.1,61.1,50.0,98,98,98,30.03,29.86,0,0,0,0.00
2013-10-17,74.8,66.1,61.3,74.2,65.6,60.8,98,98,98,29.85,29.62,4,0,0,0.13
2013-10-18,68.0,61.0,48.9,67.4,60.4,48.4,98,98,98,29.91,29.60,7,1,0,0.00
2013-10-19,63.5,53.3,41.2,62.9,52.7,40.7,98,98,98,29.93,29.68,3,0,0,0.00
2013-10-20,63.1,53.4,43.2,62.6,52.9,42.6,98,98,98,30.01,29.69,8,1,0,0.00
2013-10-21,66.9,51.6,37.0,66.3,51.1,36.5,98,98,98,30.10,29.92,4,0,0,0.00
2013-10-22,64.2,53.9,42.1,63.6,53.3,41.6,98,98,98,29.92,29.68,4,0,0,0.00
2013-10-23,55.8,46.5,38.1,55.2,46.0,37.6,98,98,98,29.75,29.55,4,0,0,0.00
2013-10-24,54.7,46.5,37.9,54.1,45.9,37.4,98,98,98,29.95,29.69,5,1,0,0.00
2013-10-25,52.3,41.9,32.4,51.8,41.4,31.9,98,98,98,30.17,29.95,7,1,0,0.00
2013-10-26,55.0,43.8,29.7,54.5,43.3,29.2,98,98,98,30.17,29.83,8,1,0,0.00
2013-10-27,54.0,49.0,40.1,53.4,48.4,39.6,98,98,98,29.91,29.79,6,1,0,0.00